Location: Bad Rothenbrunn
(47.2167°N, 11.2167°E)
Time: 10:29:27
(UTC+00:00)

Cosmos 1515 - Pass Details

Date: 03 March 2021
Orbit: 504 x 516 km, 82.5° (Epoch: 22 April)

Event Time Altitude Azimuth Distance (km) Brightness Sun altitude
Rises 17:54:22 0° 351° (N) 2,648 7.4 -9.4°
Reaches altitude 10° 17:56:31 10° 352° (N) 1,754 6.5 -9.8°
Maximum altitude 18:00:22 84° 79° (ENE) 524 3.6 -10.5°
Drops below altitude 10° 18:04:11 10° 170° (S) 1,733 6.2 -11.1°
Sets 18:06:17 0° 171° (S) 2,612 7.2 -11.5°
